Date,TemperatureHighF,TemperatureAvgF,TemperatureLowF,DewpointHighF,DewpointAvgF,DewpointLowF,HumidityHigh,HumidityAvg,HumidityLow,PressureMaxIn,PressureMinIn,WindSpeedMaxMPH,WindSpeedAvgMPH,GustSpeedMaxMPH,PrecipitationSumIn
2014-1-1,64.0,61.7,59.4,61.5,58.2,52.2,93,88,70,30.22,30.01,10,0,15,0.15
2014-1-2,73.2,66.8,60.6,70.2,64.5,55.4,94,93,82,30.01,29.81,11,0,18,0.54
2014-1-3,61.0,50.5,44.8,55.4,37.3,29.5,82,61,43,30.25,29.97,18,2,22,0.03
2014-1-4,66.9,58.1,45.0,58.5,51.6,38.1,86,79,70,30.22,30.03,13,0,13,0.00
2014-1-5,78.4,66.7,58.6,68.0,61.5,55.9,92,84,68,30.05,29.93,4,0,7,0.00
2014-1-6,70.2,59.3,48.0,67.8,52.8,32.9,93,80,52,30.32,29.91,19,3,27,0.01
2014-1-7,48.0,41.9,36.0,35.1,26.0,15.4,68,53,35,30.40,30.26,17,2,19,0.00
2014-1-8,60.6,49.9,37.0,51.6,41.9,24.8,84,74,60,30.37,30.22,12,1,14,0.00
2014-1-9,72.3,63.5,55.6,68.5,59.9,51.4,92,88,84,30.25,30.12,12,1,13,0.08
2014-1-10,80.2,72.2,68.0,71.1,67.6,64.9,93,86,72,30.16,30.01,10,0,11,0.00
2014-1-11,71.8,68.8,62.8,68.4,66.1,60.4,92,91,88,30.04,29.91,11,1,16,0.13
2014-1-13,68.4,67.6,67.1,65.7,64.9,64.4,91,91,91,29.96,29.93,7,2,10,0.01
2014-1-14,67.5,63.4,50.7,65.3,60.8,48.6,93,91,86,30.00,29.88,9,0,11,0.36
2014-1-15,63.9,56.1,49.5,55.2,50.7,47.5,94,83,62,30.05,29.92,14,0,18,0.04
2014-1-16,57.0,49.5,41.2,50.9,37.3,32.9,87,64,48,30.15,29.96,16,2,19,0.08
2014-1-17,62.8,52.6,40.5,55.8,46.3,35.4,90,80,62,30.20,30.09,0,0,0,0.00
2014-1-18,59.2,50.8,39.7,56.3,39.5,33.3,91,66,47,30.27,30.08,13,2,16,0.01
2014-1-19,67.1,53.4,39.4,57.0,48.5,35.2,91,84,68,30.21,30.09,1,0,4,0.00
2014-1-20,68.5,59.3,48.7,58.5,54.5,46.8,93,85,64,30.13,30.01,0,0,0,0.01
2014-1-21,70.5,62.7,56.5,63.7,57.7,44.1,95,84,62,30.01,29.81,11,1,19,0.02
2014-1-22,56.5,49.1,40.1,44.4,38.9,36.0,88,68,57,30.17,29.92,15,2,20,0.00
2014-1-23,64.0,49.3,39.7,42.8,36.9,28.4,89,66,30,30.32,30.15,13,0,14,0.00
2014-1-24,61.2,45.5,43.3,99.9,38.2,24.1,83,51,33,30.44,30.25,12,1,16,0.00
2014-1-25,158.0,0.0,158.0,99.9,-24.6,-99.9,100,35,83,30.27,30.01,5,0,5,0.00
2014-1-26,-200.0,0.0,200.0,-99.9,-99.9,-99.9,0,0,100,30.05,29.94,0,0,0,0.14
2014-1-27,-200.0,0.0,158.0,99.9,-95.7,-99.9,100,2,100,30.00,29.91,0,0,0,0.59
2014-1-28,-200.0,0.0,200.0,-99.9,-99.9,-99.9,0,0,100,30.03,29.93,4,0,7,0.25
2014-1-29,-200.0,0.0,200.0,-99.9,-99.9,-99.9,0,0,100,30.16,29.94,13,1,17,0.49
2014-1-30,-200.0,0.0,200.0,-99.9,-99.9,-99.9,0,0,100,30.16,30.05,10,0,11,0.26
2014-1-31,-200.0,0.0,200.0,-99.9,-99.9,-99.9,0,0,100,30.08,29.99,9,0,11,0.33
2014-2-1,-200.0,0.0,200.0,-99.9,-99.9,-99.9,0,0,100,30.09,29.99,7,0,10,0.06
2014-2-2,-200.0,0.0,200.0,-99.9,-99.9,-99.9,0,0,100,30.11,30.01,0,0,0,0.01
2014-2-3,-200.0,0.0,200.0,-99.9,-99.9,-99.9,0,0,100,30.09,30.00,7,0,7,0.01
2014-2-4,-200.0,0.0,200.0,-99.9,-99.9,-99.9,0,0,100,30.09,29.97,0,0,0,0.01
2014-2-5,-200.0,0.0,200.0,-99.9,-99.9,-99.9,0,0,100,30.04,29.96,6,0,9,0.01
2014-2-6,-200.0,0.0,200.0,-99.9,-99.9,-99.9,0,0,100,30.14,29.98,13,0,16,0.01
2014-2-7,-200.0,0.0,200.0,-99.9,-99.9,-99.9,0,0,100,30.15,30.06,11,1,13,0.10
2014-2-8,-200.0,0.0,200.0,-99.9,-99.9,-99.9,0,0,100,30.11,30.01,9,0,10,0.04
2014-2-9,-200.0,0.0,200.0,-99.9,-99.9,-99.9,0,0,100,30.12,30.02,12,0,15,0.01
2014-2-10,-200.0,0.0,200.0,-99.9,-99.9,-99.9,0,0,100,30.09,30.01,6,0,6,0.01
2014-2-11,-200.0,0.0,200.0,-99.9,-99.9,-99.9,0,0,100,30.05,29.98,4,0,5,0.00
2014-2-12,-200.0,0.0,200.0,-99.9,-99.9,-99.9,0,0,100,30.01,29.69,14,1,14,0.97
2014-2-13,-200.0,0.0,200.0,-99.9,-99.9,-99.9,0,0,100,29.97,29.69,15,3,22,0.06
2014-2-14,-200.0,0.0,200.0,-99.9,-99.9,-99.9,0,0,100,30.05,29.93,6,0,7,0.00
2014-2-15,-200.0,0.0,200.0,-99.9,-99.9,-99.9,0,0,100,30.12,29.89,20,1,20,0.00
2014-2-16,-200.0,0.0,200.0,-99.9,-99.9,-99.9,0,0,100,30.18,30.09,9,1,10,0.00
2014-2-17,-200.0,0.0,200.0,-99.9,-99.9,-99.9,0,0,100,30.21,30.13,5,0,6,0.01
2014-2-18,-200.0,0.0,200.0,-99.9,-99.9,-99.9,0,0,100,30.22,30.12,6,0,9,0.00
2014-2-19,-200.0,0.0,200.0,-99.9,-99.9,-99.9,0,0,100,30.16,30.05,6,0,7,0.01
2014-2-20,-200.0,0.0,200.0,-99.9,-99.9,-99.9,0,0,100,30.11,30.01,15,1,16,0.01
2014-2-21,-200.0,0.0,200.0,-99.9,-99.9,-99.9,0,0,100,30.03,29.96,11,1,16,0.04
2014-2-22,-200.0,0.0,200.0,-99.9,-99.9,-99.9,0,0,100,30.08,29.97,0,0,0,0.05
2014-2-23,-200.0,0.0,200.0,-99.9,-99.9,-99.9,0,0,100,30.06,29.96,7,0,10,0.01
2014-2-24,-200.0,0.0,200.0,-99.9,-99.9,-99.9,0,0,100,30.05,29.89,0,0,0,0.00
2014-2-25,-200.0,0.0,200.0,-99.9,-99.9,-99.9,0,0,100,30.04,29.94,5,0,9,0.01
2014-2-26,-200.0,0.0,200.0,-99.9,-99.9,-99.9,0,0,100,29.94,29.72,10,0,13,0.27
2014-2-27,-200.0,0.0,200.0,-99.9,-99.9,-99.9,0,0,100,29.95,29.76,8,0,12,0.03
2014-2-28,-200.0,0.0,200.0,-99.9,-99.9,-99.9,0,0,100,30.09,29.91,4,0,8,0.00
2014-3-1,-200.0,0.0,200.0,-99.9,-99.9,-99.9,0,0,100,30.21,30.04,9,0,12,0.00
2014-3-2,-200.0,0.0,200.0,-99.9,-99.9,-99.9,0,0,100,30.19,30.03,5,0,7,0.00
2014-3-3,-200.0,0.0,200.0,-99.9,-99.9,-99.9,0,0,100,30.06,29.96,12,0,13,0.01
2014-3-4,-200.0,0.0,200.0,-99.9,-99.9,-99.9,0,0,100,30.03,29.95,0,0,1,0.00
2014-3-5,-200.0,0.0,200.0,-99.9,-99.9,-99.9,0,0,100,30.01,29.92,8,0,9,0.05
2014-3-6,-200.0,0.0,200.0,-99.9,-99.9,-99.9,0,0,100,29.96,29.71,11,1,18,0.07
2014-3-7,-200.0,0.0,200.0,-99.9,-99.9,-99.9,0,0,100,30.05,29.75,16,2,20,0.08
2014-3-8,-200.0,0.0,200.0,-99.9,-99.9,-99.9,0,0,100,30.16,30.02,9,0,9,0.00
2014-3-9,-200.0,0.0,200.0,-99.9,-99.9,-99.9,0,0,100,30.18,30.07,0,0,0,0.00
2014-3-10,-200.0,0.0,200.0,-99.9,-99.9,-99.9,0,0,100,30.12,29.98,0,0,0,0.01
2014-3-11,-200.0,0.0,200.0,-99.9,-99.9,-99.9,0,0,100,30.00,29.81,0,0,0,0.01
2014-3-12,-200.0,0.0,200.0,-99.9,-99.9,-99.9,0,0,100,29.87,29.70,13,1,21,0.43
2014-3-13,-200.0,0.0,200.0,-99.9,-99.9,-99.9,0,0,100,30.19,29.85,26,3,26,0.00
2014-3-14,-200.0,0.0,200.0,-99.9,-99.9,-99.9,0,0,100,30.24,30.11,11,1,12,0.00
2014-3-15,-200.0,0.0,200.0,-99.9,-99.9,-99.9,0,0,100,30.16,30.00,0,0,0,0.00
2014-3-16,-200.0,0.0,200.0,-99.9,-99.9,-99.9,0,0,100,30.00,29.74,21,3,21,0.00
2014-3-17,-200.0,0.0,200.0,-99.9,-99.9,-99.9,0,0,100,29.74,29.61,22,3,29,0.81
2014-3-18,-200.0,0.0,200.0,-99.9,-99.9,-99.9,0,0,100,30.02,29.63,15,2,20,0.13
2014-3-19,-200.0,0.0,200.0,-99.9,-99.9,-99.9,0,0,100,30.10,29.99,10,0,12,0.01
2014-3-20,-200.0,0.0,200.0,-99.9,-99.9,-99.9,0,0,100,30.07,29.96,12,1,14,0.00
2014-3-21,-200.0,0.0,200.0,-99.9,-99.9,-99.9,0,0,100,30.06,29.96,10,0,11,0.00
2014-3-22,-200.0,0.0,200.0,-99.9,-99.9,-99.9,0,0,100,30.05,29.96,6,0,9,0.00
2014-3-23,-200.0,0.0,200.0,-99.9,-99.9,-99.9,0,0,100,30.03,29.94,0,0,0,0.00
2014-3-24,-200.0,0.0,200.0,-99.9,-99.9,-99.9,0,0,100,30.04,29.87,0,0,0,0.66
2014-3-25,-200.0,0.0,200.0,-99.9,-99.9,-99.9,0,0,100,30.04,29.82,17,2,21,0.57
2014-3-26,-200.0,0.0,200.0,-99.9,-99.9,-99.9,0,0,100,30.28,30.04,17,2,19,0.00
2014-3-27,-200.0,0.0,200.0,-99.9,-99.9,-99.9,0,0,100,30.28,30.16,13,1,18,0.00
2014-3-28,-200.0,0.0,200.0,-99.9,-99.9,-99.9,0,0,100,30.16,29.96,13,1,17,0.12
2014-3-29,-200.0,0.0,200.0,-99.9,-99.9,-99.9,0,0,100,30.02,29.86,14,1,14,1.41
2014-3-30,-200.0,0.0,200.0,-99.9,-99.9,-99.9,0,0,100,30.09,29.92,18,2,22,0.00
2014-3-31,-200.0,0.0,200.0,-99.9,-99.9,-99.9,0,0,100,30.14,30.06,2,0,4,0.00
2014-4-1,-200.0,0.0,200.0,-99.9,-99.9,-99.9,0,0,100,30.16,30.07,6,0,7,0.01
2014-4-2,-200.0,0.0,200.0,-99.9,-99.9,-99.9,0,0,100,30.16,30.08,10,0,12,0.00
2014-4-3,-200.0,0.0,200.0,-99.9,-99.9,-99.9,0,0,100,30.11,30.01,12,0,15,0.01
2014-4-4,-200.0,0.0,200.0,-99.9,-99.9,-99.9,0,0,100,30.03,29.97,12,1,14,0.01
2014-4-5,-200.0,0.0,200.0,-99.9,-99.9,-99.9,0,0,100,30.03,29.93,6,0,9,0.01
2014-4-6,-200.0,0.0,200.0,-99.9,-99.9,-99.9,0,0,100,30.01,29.90,14,1,16,0.01
2014-4-7,-200.0,0.0,200.0,-99.9,-99.9,-99.9,0,0,100,29.91,29.79,15,2,18,0.00
2014-4-8,-200.0,0.0,200.0,-99.9,-99.9,-99.9,0,0,100,29.88,29.69,20,2,20,0.33
2014-4-9,-200.0,0.0,200.0,-99.9,-99.9,-99.9,0,0,100,30.15,29.86,12,2,18,0.02
2014-4-10,-200.0,0.0,200.0,-99.9,-99.9,-99.9,0,0,100,30.25,30.14,3,0,7,0.00
2014-4-11,-200.0,0.0,200.0,-99.9,-99.9,-99.9,0,0,100,30.22,30.09,2,0,6,0.00
2014-4-12,-200.0,0.0,200.0,-99.9,-99.9,-99.9,0,0,100,30.15,30.04,9,0,12,0.00
2014-4-13,-200.0,0.0,200.0,-99.9,-99.9,-99.9,0,0,100,30.10,29.95,7,0,14,0.00
2014-4-14,-200.0,0.0,200.0,-99.9,-99.9,-99.9,0,0,100,29.99,29.85,14,1,14,0.00
2014-4-15,-200.0,0.0,200.0,-99.9,-99.9,-99.9,0,0,100,29.96,29.77,19,2,20,0.04
2014-4-16,-200.0,0.0,200.0,-99.9,-99.9,-99.9,0,0,100,30.10,29.94,15,1,16,0.00
2014-4-17,-200.0,0.0,200.0,-99.9,-99.9,-99.9,0,0,100,30.13,30.03,16,-105,18,0.57
2014-4-18,-200.0,0.0,200.0,-99.9,-99.9,-99.9,0,0,100,30.07,29.87,14,1,23,1.17
2014-4-19,-200.0,0.0,200.0,-99.9,-99.9,-99.9,0,0,100,29.97,29.84,14,1,15,0.00
2014-4-20,-200.0,0.0,200.0,-99.9,-99.9,-99.9,0,0,100,30.04,29.93,12,0,13,0.02
2014-4-21,-200.0,0.0,200.0,-99.9,-99.9,-99.9,0,0,100,30.07,29.94,10,0,12,0.00
2014-4-22,-200.0,0.0,200.0,-99.9,-99.9,-99.9,0,0,100,29.97,29.84,7,0,10,0.00
2014-4-23,-200.0,0.0,200.0,-99.9,-99.9,-99.9,0,0,100,29.94,29.85,11,0,11,0.00
2014-4-24,-200.0,0.0,200.0,-99.9,-99.9,-99.9,0,0,100,30.00,29.89,10,0,10,0.00
2014-4-25,-200.0,0.0,200.0,-99.9,-99.9,-99.9,0,0,100,30.01,29.91,6,0,9,0.01
2014-4-26,-200.0,0.0,200.0,-99.9,-99.9,-99.9,0,0,100,30.01,29.91,10,0,11,0.01
2014-4-27,-200.0,0.0,200.0,-99.9,-99.9,-99.9,0,0,100,29.98,29.89,5,0,11,0.00
2014-4-28,-200.0,0.0,200.0,-99.9,-99.9,-99.9,0,0,100,29.93,29.83,15,1,18,0.00
2014-4-29,-200.0,0.0,200.0,-99.9,-99.9,-99.9,0,0,100,29.96,29.82,14,1,18,0.00
2014-4-30,-200.0,0.0,200.0,-99.9,-99.9,-99.9,0,0,100,30.02,29.89,13,1,19,0.07
2014-5-1,-200.0,0.0,200.0,-99.9,-99.9,-99.9,0,0,100,29.99,29.91,13,1,14,0.00
2014-5-2,-200.0,0.0,200.0,-99.9,-99.9,-99.9,0,0,100,29.91,29.84,10,0,15,1.38
2014-5-3,-200.0,0.0,200.0,-99.9,-99.9,-99.9,0,0,100,30.03,29.84,13,0,14,0.73
2014-5-4,-200.0,0.0,200.0,-99.9,-99.9,-99.9,0,0,100,30.08,29.98,11,1,14,0.00
2014-5-5,-200.0,0.0,200.0,-99.9,-99.9,-99.9,0,0,100,30.06,29.95,12,0,12,0.00
2014-5-6,-200.0,0.0,200.0,-99.9,-99.9,-99.9,0,0,100,30.01,29.93,9,0,10,0.00
2014-5-7,-200.0,0.0,200.0,-99.9,-99.9,-99.9,0,0,100,30.10,29.97,11,0,11,0.00
2014-5-8,-200.0,0.0,200.0,-99.9,-99.9,-99.9,0,0,100,30.15,30.06,14,1,15,0.00
2014-5-9,-200.0,0.0,200.0,-99.9,-99.9,-99.9,0,0,100,30.14,30.02,12,1,15,0.00
2014-5-10,-200.0,0.0,200.0,-99.9,-99.9,-99.9,0,0,100,30.10,30.00,15,1,16,0.00
2014-5-11,-200.0,0.0,200.0,-99.9,-99.9,-99.9,0,0,100,30.11,29.99,10,-41,12,0.00
2014-5-12,-200.0,0.0,200.0,-99.9,-99.9,-99.9,0,0,100,30.10,29.99,13,-426,14,0.00
2014-5-13,-200.0,0.0,200.0,-99.9,-99.9,-99.9,0,0,100,30.03,29.91,15,1,17,0.00
2014-5-14,-200.0,0.0,200.0,-99.9,-99.9,-99.9,0,0,100,30.00,29.88,14,1,20,0.41
2014-5-15,-200.0,0.0,200.0,-99.9,-99.9,-99.9,0,0,100,29.98,29.87,17,1,17,0.06
2014-5-16,-200.0,0.0,200.0,-99.9,-99.9,-99.9,0,0,100,30.09,29.96,17,2,19,0.00
2014-5-17,-200.0,0.0,200.0,-99.9,-99.9,-99.9,0,0,100,30.12,30.03,12,1,14,0.00
2014-5-18,-200.0,0.0,200.0,-99.9,-99.9,-99.9,0,0,100,30.12,30.02,10,0,13,0.00
2014-5-19,-200.0,0.0,200.0,-99.9,-99.9,-99.9,0,0,100,30.13,30.05,8,0,13,0.00
2014-5-20,-200.0,0.0,200.0,-99.9,-99.9,-99.9,0,0,100,30.16,30.07,12,1,14,0.00
2014-5-21,-200.0,0.0,200.0,-99.9,-99.9,-99.9,0,0,100,30.15,30.07,10,0,11,0.00
2014-5-22,-200.0,0.0,200.0,-99.9,-99.9,-99.9,0,0,100,30.13,30.02,11,1,11,0.00
2014-5-23,-200.0,0.0,200.0,-99.9,-99.9,-99.9,0,0,100,30.08,29.99,12,1,12,0.00
2014-5-24,-200.0,0.0,200.0,-99.9,-99.9,-99.9,0,0,100,30.07,29.98,9,0,10,0.01
2014-5-25,-200.0,0.0,200.0,-99.9,-99.9,-99.9,0,0,100,30.08,29.97,15,0,15,0.02
2014-5-26,-200.0,0.0,200.0,-99.9,-99.9,-99.9,0,0,100,30.14,30.03,0,-91,0,0.00
2014-5-27,-200.0,0.0,200.0,-99.9,-99.9,-99.9,0,0,100,30.11,29.99,0,-999,0,0.03
2014-5-28,-200.0,0.0,200.0,-99.9,-99.9,-99.9,0,0,100,30.03,29.93,0,-475,0,0.00
2014-5-29,-200.0,0.0,200.0,-99.9,-99.9,-99.9,0,0,100,29.99,29.90,14,0,16,0.00
2014-5-30,-200.0,0.0,200.0,-99.9,-99.9,-99.9,0,0,100,29.98,29.91,7,0,11,0.00
2014-5-31,-200.0,0.0,200.0,-99.9,-99.9,-99.9,0,0,100,29.99,29.90,9,0,9,0.82
2014-6-1,-200.0,0.0,200.0,-99.9,-99.9,-99.9,0,0,100,30.02,29.95,9,-121,13,0.07
2014-6-2,-200.0,0.0,200.0,-99.9,-99.9,-99.9,0,0,100,30.06,29.97,15,-481,17,0.01
2014-6-3,-200.0,0.0,200.0,-99.9,-99.9,-99.9,0,0,100,30.04,29.93,0,0,0,0.00
2014-6-4,-200.0,0.0,200.0,-99.9,-99.9,-99.9,0,0,100,29.96,29.88,7,0,9,0.00
2014-6-5,-200.0,0.0,200.0,-99.9,-99.9,-99.9,0,0,100,29.94,29.84,5,0,10,0.00
2014-6-6,-200.0,0.0,200.0,-99.9,-99.9,-99.9,0,0,100,29.97,29.85,0,0,1,0.00
2014-6-7,-200.0,0.0,200.0,-99.9,-99.9,-99.9,0,0,100,29.99,29.85,0,0,1,0.00
2014-6-8,-200.0,0.0,200.0,-99.9,-99.9,-99.9,0,0,100,29.98,29.86,1,-441,1,0.00
2014-6-9,-200.0,0.0,200.0,-99.9,-99.9,-99.9,0,0,100,29.96,29.85,0,-999,0,0.00
2014-6-10,-200.0,0.0,200.0,-99.9,-99.9,-99.9,0,0,100,29.98,29.91,0,-999,0,0.15
2014-6-11,-200.0,0.0,200.0,-99.9,-99.9,-99.9,0,0,100,29.96,29.88,0,-999,0,0.68
2014-6-12,-200.0,0.0,200.0,-99.9,-99.9,-99.9,0,0,100,29.98,29.88,5,-396,8,0.03
2014-6-13,-200.0,0.0,200.0,-99.9,-99.9,-99.9,0,0,100,29.98,29.90,0,0,0,0.17
2014-6-14,-200.0,0.0,200.0,-99.9,-99.9,-99.9,0,0,100,30.05,29.93,11,0,18,1.02
2014-6-15,-200.0,0.0,200.0,-99.9,-99.9,-99.9,0,0,100,30.11,29.98,6,0,7,0.01
2014-6-16,-200.0,0.0,200.0,-99.9,-99.9,-99.9,0,0,100,30.14,30.01,2,0,4,0.04
2014-6-17,-200.0,0.0,200.0,-99.9,-99.9,-99.9,0,0,100,30.11,30.00,15,0,16,0.04
2014-6-18,-200.0,0.0,200.0,-99.9,-99.9,-99.9,0,0,100,30.08,30.00,20,0,20,1.46
2014-6-19,-200.0,0.0,200.0,-99.9,-99.9,-99.9,0,0,100,30.09,30.01,4,0,7,0.10
2014-6-20,-200.0,0.0,200.0,-99.9,-99.9,-99.9,0,0,100,30.05,29.94,0,0,1,0.00
2014-6-21,-200.0,0.0,200.0,-99.9,-99.9,-99.9,0,0,100,29.98,29.88,9,0,11,0.00
2014-6-22,89.4,31.8,79.9,75.4,-34.7,-99.9,79,26,59,29.96,29.87,7,0,11,0.01
2014-6-23,90.1,83.1,78.1,76.8,73.8,71.2,85,74,59,30.05,29.90,4,0,10,0.00
2014-6-24,89.2,83.4,79.5,76.5,74.2,70.9,83,74,60,30.10,30.01,0,0,0,0.00
2014-6-25,91.8,83.6,74.3,76.3,73.2,70.0,92,72,50,30.11,29.98,1,0,2,0.00
2014-6-26,94.1,83.9,75.9,77.0,73.8,67.5,95,74,44,30.08,29.93,6,0,9,0.00
2014-6-27,94.3,84.0,75.6,77.0,73.8,70.9,95,74,51,30.07,29.98,15,0,18,0.21
2014-6-28,93.0,84.6,74.8,79.0,74.8,69.4,98,75,48,30.11,30.02,10,0,11,0.21
2014-6-29,93.0,85.8,77.2,79.5,75.8,70.5,96,74,51,30.10,29.99,12,1,14,0.08
2014-6-30,92.5,83.1,75.0,77.2,74.2,68.7,96,77,53,30.04,29.87,15,1,16,0.14
2014-7-1,91.9,83.4,75.6,78.8,75.8,73.8,97,80,57,29.92,29.81,10,0,13,0.16
2014-7-2,92.8,83.4,75.0,78.8,75.0,70.3,96,77,53,29.92,29.84,12,0,14,0.01
2014-7-3,91.2,84.9,76.3,78.8,75.9,70.9,92,75,59,30.04,29.90,12,0,14,0.00
2014-7-4,90.1,82.5,74.7,78.1,75.2,71.6,97,79,61,30.08,29.99,5,0,13,0.13
2014-7-5,90.5,82.9,75.6,78.6,75.0,71.2,97,78,61,30.08,30.01,2,0,3,0.16
2014-7-6,90.1,81.9,76.5,78.1,74.4,70.3,93,79,59,30.06,29.98,10,0,15,0.00
2014-7-7,87.3,79.7,75.6,77.4,74.2,71.6,94,84,67,30.08,29.98,4,0,7,0.02
2014-7-8,91.2,79.5,76.3,78.4,74.3,72.5,94,85,56,30.11,30.01,3,0,10,0.00
2014-7-9,87.4,79.9,73.0,78.6,75.3,71.2,97,86,68,30.09,30.00,9,0,9,1.76
2014-7-10,91.9,81.9,75.7,78.3,74.8,69.1,97,80,55,30.09,30.01,9,0,9,0.00
2014-7-11,89.1,80.5,74.5,78.6,74.7,71.4,96,83,65,30.11,30.02,5,0,9,0.18
2014-7-12,92.3,83.1,76.3,78.1,74.3,70.7,92,76,55,30.09,30.02,9,0,10,0.00
2014-7-13,91.0,83.1,75.4,77.7,74.4,70.9,94,76,58,30.08,29.99,10,0,10,0.00
2014-7-14,91.4,83.8,76.8,79.0,75.2,72.5,91,76,60,30.05,29.97,9,0,11,0.00
2014-7-15,90.1,83.4,77.4,79.2,76.0,72.9,95,79,63,29.98,29.89,9,0,12,0.12
2014-7-16,85.8,79.7,74.7,78.1,75.3,71.6,97,87,73,29.95,29.85,16,0,16,0.64
2014-7-17,90.3,82.5,74.8,79.7,75.2,72.0,96,79,61,29.98,29.86,12,1,17,1.33
2014-7-18,91.8,82.3,73.9,75.9,72.8,68.5,94,75,48,30.03,29.95,3,0,5,0.00
2014-7-19,92.1,82.9,74.8,78.6,74.2,71.6,95,76,55,30.03,29.95,0,0,1,0.00
2014-7-20,91.2,83.5,75.7,79.0,75.9,73.9,96,79,61,30.04,29.96,9,0,12,0.00
2014-7-21,92.7,83.7,76.5,78.6,74.9,71.8,92,76,55,30.03,29.94,9,0,12,0.00
2014-7-22,90.9,82.6,73.8,77.4,74.2,71.4,96,77,58,30.03,29.94,7,0,10,0.00
2014-7-23,92.5,84.6,77.2,79.5,76.0,73.8,96,77,57,30.04,29.95,3,0,3,0.00
2014-7-24,92.7,84.1,77.5,77.7,75.4,73.2,93,76,57,30.03,29.93,1,0,1,0.00
2014-7-25,92.5,85.2,79.5,79.3,76.3,73.8,85,75,58,30.05,29.96,1,0,2,0.00
2014-7-26,91.8,85.1,79.5,78.8,76.5,74.1,90,76,58,30.06,29.98,1,0,1,0.00
2014-7-27,92.5,85.8,78.6,78.8,75.9,74.1,87,73,57,30.07,30.00,2,0,3,0.00
2014-7-28,91.8,86.4,82.6,79.3,76.4,74.3,80,72,62,30.03,29.93,14,0,14,0.00
2014-7-29,90.3,84.4,79.9,79.2,76.8,72.0,91,78,65,29.95,29.88,14,1,15,0.08
2014-7-30,92.3,84.7,77.2,77.7,71.9,64.4,91,67,48,29.94,29.88,4,0,7,0.00
2014-7-31,91.0,82.5,74.1,72.0,69.0,65.3,88,65,47,29.96,29.89,7,0,12,0.00
2014-8-1,91.6,82.5,72.9,74.3,70.9,67.5,91,70,47,29.96,29.88,7,0,11,0.00
2014-8-2,93.4,84.6,76.6,77.7,74.0,71.4,87,72,53,29.94,29.85,13,0,14,0.00
2014-8-3,93.7,84.6,75.9,79.0,75.7,73.2,96,76,55,29.91,29.82,10,0,11,0.00
2014-8-4,91.2,82.9,77.0,79.3,76.0,74.5,93,80,65,29.93,29.83,9,0,12,0.00
2014-8-5,92.1,84.4,79.0,78.6,76.1,74.3,91,77,58,30.02,29.90,6,0,9,0.00
2014-8-6,92.1,84.4,76.6,78.1,75.8,74.1,94,77,58,30.03,29.94,7,0,11,0.00
2014-8-7,92.5,85.1,77.7,78.6,75.8,73.4,95,75,57,29.98,29.91,9,0,10,0.00
2014-8-8,94.5,85.0,77.2,78.6,75.0,71.8,91,73,48,30.03,29.91,9,0,13,0.00
2014-8-9,93.4,84.7,77.0,79.0,76.1,73.8,94,77,56,30.03,29.94,10,0,11,0.01
2014-8-10,93.0,82.6,74.7,78.8,76.0,71.8,97,82,61,30.02,29.95,10,0,12,0.30
2014-8-11,90.3,80.9,75.9,80.2,76.0,71.6,97,86,65,30.02,29.93,10,0,14,0.21
2014-8-12,92.7,86.0,79.9,78.1,75.8,73.6,88,72,57,29.98,29.89,9,0,10,0.00
2014-8-13,93.2,85.9,80.8,78.3,75.9,74.1,85,73,57,29.98,29.91,11,0,12,0.00
2014-8-14,93.6,86.1,81.1,79.2,76.8,75.0,84,74,58,29.99,29.91,10,0,11,0.00
2014-8-15,84.0,78.8,72.3,77.9,74.9,71.1,97,88,79,30.04,29.91,17,0,19,2.28
2014-8-16,89.6,81.4,74.8,80.2,76.9,72.3,96,86,68,30.06,29.95,5,0,7,0.35
2014-8-17,92.5,83.8,76.5,79.9,77.0,75.2,98,81,61,30.07,29.99,2,0,4,0.00
2014-8-18,92.8,83.9,76.6,79.9,76.2,74.3,96,79,59,30.03,29.94,6,0,9,0.00
2014-8-19,92.8,84.2,76.3,78.3,75.1,72.9,95,76,54,30.01,29.93,5,0,9,0.00
2014-8-20,92.8,84.3,76.3,78.8,75.8,73.2,94,77,57,30.06,29.94,7,0,13,0.00
2014-8-21,93.7,84.4,77.0,79.3,75.4,70.2,96,76,54,30.09,29.99,12,0,12,0.00
2014-8-22,92.8,84.7,77.5,80.8,76.2,72.7,93,77,56,30.06,29.94,8,0,9,0.01
2014-8-23,93.6,83.0,76.6,80.1,76.9,74.3,96,83,57,29.96,29.82,11,0,11,0.01
2014-8-24,94.6,84.2,77.0,81.3,77.4,73.0,96,81,58,29.85,29.70,11,0,18,0.05
2014-8-25,97.2,85.1,77.7,77.7,74.2,68.7,93,73,41,29.83,29.73,15,1,16,0.00
2014-8-26,96.4,84.8,74.7,75.6,71.1,65.1,93,67,41,29.90,29.80,10,0,12,0.00
2014-8-27,95.4,84.5,76.8,75.9,72.4,66.7,88,69,40,29.95,29.87,7,0,11,0.11
2014-8-28,97.2,85.3,77.2,77.7,74.1,67.8,89,71,40,29.95,29.86,7,0,10,0.12
2014-8-29,93.6,84.5,79.2,79.5,76.7,72.0,91,78,57,30.04,29.92,0,0,0,0.00
2014-8-30,96.8,83.7,74.7,79.0,75.1,71.8,96,77,46,30.09,29.97,15,0,21,0.20
2014-8-31,98.1,83.3,76.3,79.5,75.0,69.8,97,78,41,30.08,29.97,12,0,12,0.04
2014-9-1,93.9,84.3,76.5,78.3,75.2,72.5,95,76,52,30.07,29.97,3,0,4,0.00
2014-9-2,92.7,81.1,72.5,78.6,75.4,68.2,97,84,55,30.05,29.91,10,0,15,1.31
2014-9-3,94.6,81.7,73.0,75.7,73.5,69.6,97,79,46,30.00,29.90,14,0,14,0.39
2014-9-4,91.2,81.7,75.0,77.4,74.7,72.0,97,81,55,30.06,29.96,5,0,7,0.39
2014-9-5,90.9,82.2,77.4,78.4,75.1,71.2,93,80,60,30.08,29.98,1,0,3,0.00
2014-9-6,90.1,81.8,75.4,77.4,73.2,69.6,92,76,52,30.02,29.90,0,0,1,0.00
2014-9-7,89.8,81.0,75.6,76.8,73.5,71.4,95,79,58,29.97,29.89,1,0,2,0.00
2014-9-8,86.5,80.5,76.5,77.4,74.5,71.4,89,82,71,30.02,29.92,2,0,2,0.00
2014-9-9,88.7,80.1,75.0,77.0,74.0,71.1,93,82,62,30.03,29.91,5,0,5,0.00
2014-9-10,96.3,83.4,74.7,76.3,72.9,68.2,96,74,42,29.99,29.88,7,0,11,0.00
2014-9-11,92.5,82.9,76.3,75.9,73.8,70.5,96,76,49,29.98,29.90,10,0,15,0.05
2014-9-12,95.4,81.9,73.9,77.0,74.2,70.2,97,80,49,29.97,29.84,13,1,13,0.08
2014-9-13,93.2,82.4,75.9,79.0,73.4,70.3,89,75,48,30.03,29.91,13,1,15,0.06
2014-9-14,90.9,81.5,75.0,76.6,74.2,72.1,92,79,59,30.09,29.99,15,1,15,0.02
2014-9-15,90.3,81.2,73.8,77.5,74.6,72.1,97,82,57,30.12,30.03,7,0,9,0.43
2014-9-16,89.1,79.2,74.8,77.2,74.1,71.6,97,85,64,30.09,29.93,15,0,17,0.28
2014-9-17,81.9,76.2,72.7,76.1,73.8,70.9,98,92,80,29.95,29.81,15,0,16,2.13
2014-9-18,90.7,80.0,71.4,77.9,73.7,70.5,99,82,54,29.91,29.82,5,0,7,0.00
2014-9-19,80.4,76.7,69.4,77.7,73.5,68.0,98,90,80,29.93,29.83,10,0,12,0.99
2014-9-20,84.2,75.5,70.7,74.7,71.8,69.4,98,89,67,29.91,29.83,7,0,7,0.74
2014-9-21,88.3,79.3,72.0,77.0,73.1,70.2,95,82,60,29.97,29.87,5,0,6,0.00
2014-9-22,82.8,76.8,74.1,78.1,73.7,70.3,97,90,79,29.99,29.90,10,0,13,0.15
2014-9-23,81.9,76.5,72.9,76.6,73.2,70.7,97,90,80,29.98,29.89,0,0,0,0.21
2014-9-24,87.3,77.9,72.7,76.8,72.5,70.5,94,84,64,30.04,29.94,7,0,7,0.02
2014-9-25,87.6,77.7,71.4,76.5,72.6,68.9,96,85,66,30.05,29.93,11,0,12,0.45
2014-9-26,88.9,78.6,73.0,78.1,73.9,71.2,96,86,64,29.97,29.87,11,0,14,0.56
2014-9-27,92.3,78.7,72.9,78.8,74.2,71.6,97,87,58,29.97,29.87,10,0,12,1.88
2014-9-28,91.8,79.7,73.2,78.4,75.0,71.6,98,87,58,29.97,29.85,13,0,15,1.69
2014-9-29,87.3,77.6,74.1,79.5,75.3,73.2,98,93,76,29.92,29.78,8,0,12,0.63
2014-9-30,87.6,79.6,74.7,79.2,76.1,73.8,98,90,72,29.82,29.75,3,0,7,0.27
2014-10-1,87.4,80.3,74.7,78.6,75.9,73.8,98,87,70,29.93,29.76,0,0,0,0.04
2014-10-2,87.4,79.6,73.8,78.3,74.6,72.9,98,86,65,30.00,29.91,0,0,0,0.00
2014-10-3,88.9,80.5,74.7,79.2,75.7,73.0,97,86,67,29.99,29.88,7,0,16,0.02
2014-10-4,83.5,76.7,73.2,77.9,69.5,56.5,98,80,53,29.93,29.83,12,1,14,1.61
2014-10-5,75.9,67.9,59.2,61.3,49.6,41.4,80,53,30,30.01,29.88,11,1,12,0.00
2014-10-6,83.5,71.0,59.4,69.4,60.8,51.6,88,71,50,30.04,29.94,6,0,9,0.00
2014-10-7,87.6,78.5,71.8,75.7,70.2,66.4,90,76,60,30.04,29.96,11,0,11,0.00
2014-10-8,90.1,78.5,70.3,73.8,70.8,68.9,96,79,51,30.09,29.98,4,0,4,0.00
2014-10-9,92.1,80.3,72.3,73.0,70.5,66.6,94,74,44,30.06,29.96,9,0,11,0.00
2014-10-10,92.8,80.1,71.4,74.8,71.3,66.9,97,77,45,30.03,29.93,7,0,12,0.00
2014-10-11,89.2,79.4,72.0,74.8,71.2,66.2,95,77,47,30.01,29.92,0,0,0,0.00
2014-10-12,91.8,80.0,71.4,74.1,70.8,67.1,95,75,48,30.02,29.93,2,0,4,0.00
2014-10-13,92.8,81.1,74.7,76.8,72.7,69.1,89,77,52,30.03,29.92,11,0,13,0.00
2014-10-14,85.3,77.4,72.3,77.7,73.2,69.4,98,87,72,29.96,29.86,14,0,16,1.73
2014-10-15,81.0,74.7,65.8,75.2,68.9,60.6,98,83,62,29.94,29.86,7,0,10,0.14
2014-10-16,81.1,73.8,65.3,64.2,61.4,58.8,88,66,51,29.94,29.85,12,1,15,0.00
2014-10-17,81.5,69.7,60.6,61.5,57.9,49.5,91,70,34,29.98,29.89,0,0,0,0.00
2014-10-18,81.7,70.0,59.5,66.7,63.0,58.3,98,80,55,29.96,29.88,0,0,0,0.00
2014-10-19,87.6,73.6,63.3,71.6,65.5,61.0,98,78,44,29.98,29.92,4,0,7,0.00
2014-10-20,86.2,75.5,66.7,69.4,65.5,62.1,94,73,46,30.00,29.89,0,0,1,0.00
2014-10-21,84.7,74.7,69.1,68.9,65.3,60.4,86,73,50,29.93,29.85,0,0,0,0.00
2014-10-22,88.2,74.8,67.1,66.9,64.3,61.2,95,72,43,29.95,29.86,5,0,6,0.00
2014-10-23,85.3,72.9,64.6,63.5,59.0,56.1,79,63,38,29.95,29.84,12,1,12,0.00
2014-10-24,81.9,70.0,62.1,62.8,59.6,56.3,87,71,43,29.96,29.85,13,0,13,0.00
2014-10-25,77.4,67.5,57.6,61.0,55.0,48.9,91,67,39,29.97,29.90,11,0,13,0.00
2014-10-26,82.0,67.3,57.0,61.7,56.0,47.3,97,71,32,30.00,29.91,3,0,3,0.00
2014-10-27,84.6,69.4,59.0,63.3,59.6,54.0,97,74,37,30.06,29.96,7,0,12,0.00
2014-10-28,87.1,73.1,63.7,67.8,63.6,57.9,97,76,40,30.12,30.02,11,0,12,0.00
2014-10-29,84.6,74.0,65.7,70.9,67.5,64.0,97,82,53,30.06,29.95,9,0,9,0.00
2014-10-30,81.9,73.6,69.1,70.5,68.4,66.2,98,85,62,29.96,29.83,7,0,11,0.00
2014-10-31,74.1,70.0,64.4,69.1,59.1,51.1,95,70,50,29.89,29.79,13,1,17,0.00
2014-11-1,70.3,63.2,54.5,58.3,46.7,37.9,72,55,42,30.15,29.85,22,4,25,0.00
2014-11-2,63.0,53.6,45.7,45.5,42.0,36.1,89,66,39,30.27,30.15,14,1,17,0.00
2014-11-3,75.9,60.2,45.9,53.8,47.8,40.6,87,66,41,30.32,30.22,10,0,13,0.00
2014-11-4,82.4,67.3,55.2,59.7,56.5,52.0,90,71,43,30.27,30.11,11,0,13,0.00
2014-11-5,84.0,71.5,62.4,64.8,61.8,59.2,94,74,46,30.19,30.05,9,0,10,0.00
2014-11-6,81.7,71.4,64.2,68.4,65.5,61.9,96,83,60,30.11,29.95,0,0,0,0.00
2014-11-7,75.6,66.1,54.7,67.1,59.3,49.5,98,80,59,29.96,29.88,0,0,0,0.03
2014-11-8,73.8,61.5,53.4,60.8,55.5,49.3,96,82,60,29.93,29.83,8,0,9,0.32
2014-11-9,67.6,60.9,56.8,60.6,57.9,55.4,97,90,75,29.91,29.81,10,0,11,0.44
2014-11-10,73.2,63.5,55.8,60.3,58.2,54.9,98,84,60,29.95,29.89,14,0,14,0.01
2014-11-11,73.6,65.2,57.9,61.0,57.5,53.2,98,78,52,29.95,29.87,14,1,14,0.01
2014-11-12,74.3,64.3,54.5,59.9,55.3,48.2,97,75,42,30.03,29.92,9,0,9,0.00
2014-11-13,76.8,66.3,55.6,65.5,59.1,54.5,98,79,50,30.03,29.95,0,0,1,0.00
2014-11-14,67.5,62.0,54.9,65.5,55.3,47.8,96,79,61,30.11,29.97,13,1,16,0.00
2014-11-15,73.8,60.3,49.6,58.8,52.8,45.1,91,77,51,30.20,30.09,0,0,0,0.00
2014-11-16,81.5,68.0,58.3,68.4,63.2,56.8,96,86,64,30.16,29.98,5,0,10,0.00
2014-11-17,76.3,69.5,64.0,72.7,68.1,63.1,98,95,88,29.98,29.85,14,1,15,0.99
2014-11-18,63.9,51.8,44.8,62.6,43.4,30.4,96,74,55,30.28,29.96,17,2,17,0.10
2014-11-19,62.1,48.4,40.3,46.2,36.0,24.8,80,63,50,30.34,30.20,15,1,15,0.00
2014-11-20,66.7,53.6,43.2,43.9,38.3,32.4,84,59,28,30.25,30.11,9,0,10,0.00
2014-11-21,74.8,63.6,53.2,56.7,47.9,33.3,77,58,38,30.23,30.14,13,1,15,0.00
2014-11-22,76.8,69.2,60.3,68.4,64.6,55.2,93,85,74,30.19,29.98,18,2,19,0.11
2014-11-23,80.1,73.8,70.7,72.7,70.4,67.6,97,89,77,29.99,29.81,17,2,20,0.00
2014-11-24,76.5,71.9,69.3,73.8,70.9,68.7,98,97,90,29.97,29.84,14,1,14,0.01
2014-11-25,73.6,71.8,70.2,73.0,71.3,69.6,98,98,98,29.96,29.78,16,0,17,1.16
2014-11-26,70.9,57.5,46.4,70.3,52.2,43.7,98,83,59,30.19,29.78,17,2,19,1.22
2014-11-27,69.8,56.0,45.9,58.3,47.3,40.8,97,74,58,30.25,30.16,15,1,19,0.01
2014-11-28,61.5,50.5,42.6,45.0,38.7,33.1,88,65,39,30.31,30.19,15,0,15,0.00
2014-11-29,74.7,58.5,45.1,55.2,49.7,42.3,91,75,45,30.27,30.18,0,0,0,0.00
2014-11-30,78.1,63.5,53.6,60.8,56.4,52.0,95,79,52,30.28,30.19,0,0,0,0.00
2014-12-1,81.1,68.3,58.3,65.7,61.4,55.9,94,80,56,30.28,30.14,13,0,17,0.01
2014-12-2,80.1,70.2,61.9,67.6,64.4,60.8,97,83,61,30.18,30.07,14,0,15,0.01
2014-12-3,82.9,70.9,62.8,68.0,64.2,61.2,97,80,57,30.15,30.05,10,0,10,0.00
2014-12-4,82.9,70.7,61.3,66.2,63.1,59.5,95,78,54,30.17,30.07,10,0,12,0.00
2014-12-5,82.2,72.0,64.2,68.7,65.5,62.6,96,81,61,30.20,30.11,9,0,13,0.00
2014-12-6,80.8,70.6,64.2,70.2,66.4,63.3,97,87,66,30.17,30.07,0,0,0,0.00
2014-12-7,65.8,63.3,57.9,64.8,61.1,54.7,98,93,82,30.10,30.01,9,0,12,0.00
2014-12-8,62.8,60.0,57.7,61.5,57.8,55.2,97,92,87,30.09,29.98,9,0,9,0.06
2014-12-9,61.0,57.1,54.3,55.4,50.9,42.3,95,81,61,30.08,30.00,13,1,15,0.00
2014-12-10,64.2,54.4,45.0,50.4,45.9,40.8,93,74,51,30.11,30.03,3,0,7,0.00
2014-12-11,64.0,54.9,47.5,51.3,49.0,45.7,95,81,61,30.18,30.06,12,0,12,0.00
2014-12-12,58.3,51.9,44.4,49.1,41.7,34.9,93,70,42,30.26,30.14,0,0,0,0.00
2014-12-13,65.5,52.1,41.4,47.1,42.7,38.7,97,74,40,30.18,30.07,0,0,0,0.00
2014-12-14,67.5,53.8,44.6,53.6,45.3,37.9,98,77,36,30.09,30.01,0,0,0,0.00
2014-12-15,68.7,54.6,44.2,58.1,50.9,43.2,98,88,65,30.11,30.01,0,0,0,0.01
2014-12-16,69.1,58.2,46.0,62.1,55.6,45.3,98,91,76,30.16,30.09,2,0,5,0.01
2014-12-17,74.1,63.3,54.5,62.8,56.3,49.5,97,79,52,30.18,30.07,0,0,0,0.00
2014-12-18,67.5,56.0,48.7,56.8,51.8,47.3,98,87,67,30.15,30.05,0,0,0,0.00
2014-12-19,72.1,59.1,48.6,57.2,51.8,47.7,97,79,47,30.10,29.98,0,0,0,0.01
2014-12-20,77.2,65.3,55.0,62.4,58.2,48.6,96,79,56,30.06,29.97,3,0,3,0.00
2014-12-21,76.3,68.3,63.9,67.1,63.9,59.5,96,86,71,30.04,29.93,10,0,10,0.33
2014-12-22,73.6,69.7,66.0,69.4,67.5,64.8,97,93,86,29.96,29.85,15,1,15,0.08
2014-12-23,79.2,72.8,68.7,72.1,69.8,67.5,97,90,79,29.90,29.80,19,2,19,0.01
2014-12-24,76.3,72.1,64.8,71.8,69.0,61.9,97,90,77,29.95,29.76,23,2,23,0.58
2014-12-25,66.0,60.6,52.9,63.1,54.7,50.5,92,81,70,30.19,29.93,9,0,11,0.04
2014-12-26,76.1,64.2,52.9,60.4,55.2,50.0,92,74,47,30.20,30.12,9,0,9,0.00
2014-12-27,80.2,69.1,61.3,69.4,64.2,58.8,95,85,66,30.22,30.09,10,0,10,0.00
2014-12-28,77.5,69.7,62.8,70.0,66.4,61.7,98,90,76,30.13,30.04,4,0,4,0.00
2014-12-29,76.3,69.2,63.1,70.7,67.0,62.1,98,93,82,30.11,30.00,10,0,10,0.01
2014-12-30,69.6,67.7,65.5,69.1,66.7,64.2,98,97,89,30.18,30.03,10,0,11,0.29
2014-12-31,66.4,62.9,60.1,65.1,60.0,57.6,96,90,83,30.24,30.12,13,1,13,0.01
2015-1-1,72.9,64.6,58.8,65.8,60.9,56.8,96,88,74,30.23,30.09,7,0,10,0.00
2015-1-2,80.2,69.2,63.1,70.0,66.1,62.4,98,90,68,30.21,30.11,9,0,9,0.00